This is the latest recevied weather packets stored in our database for station/object IW1RCO-13. If no packets are shown the sender has not sent any weather packets the latest 10 day(s).
| Time | Temp. | Humidity | Pressure | Rain* | Wind** | Luminosity | Snow |
|---|---|---|---|---|---|---|---|
| 1788532176 | 30.56° C | 51% | 1020 hPa | - | - | - | - |
| 1788531869 | 30.56° C | 49% | 1019.5 hPa | - | - | - | - |
| 1788531572 | 30.56° C | 46% | 1019.8 hPa | - | - | - | - |
| 1788531269 | 30° C | 41% | 1019.5 hPa | - | - | - | - |
| 1788530972 | 30.56° C | 44% | 1019.9 hPa | - | - | - | - |
| 1788530669 | 30° C | 49% | 1019.6 hPa | - | - | - | - |
| 1788530372 | 30.56° C | 47% | 1019.8 hPa | - | - | - | - |
| 1788530068 | 31.11° C | 40% | 1019.9 hPa | - | - | - | - |
| 1788529772 | 31.11° C | 44% | 1019.9 hPa | - | - | - | - |
| 1788529468 | 30.56° C | 42% | 1019.7 hPa | - | - | - | - |
| 1788529171 | 31.67° C | 42% | 1020 hPa | - | - | - | - |
| 1788528868 | 31.11° C | 40% | 1019.7 hPa | - | - | - | - |
| 1788528571 | 31.11° C | 36% | 1019.4 hPa | - | - | - | - |
| 1788528267 | 30.56° C | 49% | 1020 hPa | - | - | - | - |
| 1788527971 | 30° C | 51% | 1020 hPa | - | - | - | - |
| 1788527667 | 30° C | 51% | 1019.4 hPa | - | - | - | - |
| 1788527370 | 30.56° C | 51% | 1019.4 hPa | - | - | - | - |
| 1788527067 | 30.56° C | 53% | 1019.9 hPa | - | - | - | - |
| 1788526467 | 31.11° C | 47% | 1019.9 hPa | - | - | - | - |
| 1788526170 | 31.11° C | 48% | 1019.9 hPa | - | - | - | - |
| 1788525873 | 31.67° C | 47% | 1020.1 hPa | - | - | - | - |
| 1788525571 | 30.56° C | 41% | 1020 hPa | - | - | - | - |
| 1788525274 | 31.11° C | 39% | 1019.6 hPa | - | - | - | - |
| 1788524997 | 31.11° C | 37% | 1019.8 hPa | - | - | - | - |
| 1788524673 | 31.11° C | 36% | 1020 hPa | - | - | - | - |
* Rain since midnight (hover to see other rain measurements)
** Current wind speed in m/s (hover to see current wind gust speed)